Flag Weather past 2 weeks in Davenport, Iowa, U.S.A.

Now
27 °F

Mostly cloudy.


Feels Like: 20 °F
Forecast: 12 / 25 °F
Wind: 7 mph from Northeast

Location: Davenport Municipal Airport

Current Time: Nov 26, 2014 at 6:49:36 PM

Latest Report: Nov 26, 2014 at 5:52 PM


Visibility: 8 mi

Pressure: 30.19 "Hg

Humidity: 78%

Dew point: 21 °F

Location of DavenportLocation

Historic Weather in Davenport — Graph

°F

Davenport temperature yesterday

Maximum temperature yesterday: 24 °F (at 2:52 PM)
Minimum temperature yesterday: 14 °F (at 5:52 AM)
Average temperature yesterday: 18 °F

Past Weeks' High & Low Weather Summary

 TemperatureHumidityPressure
High54 °F (Nov 22, 2:52 PM)96% (Nov 23, 4:52 PM)30.45 "Hg (Nov 23, 4:52 PM)
Low4 °F (Nov 21, 12:52 AM)27% (Nov 21, 1:52 PM)29.16 "Hg (Nov 24, 12:52 AM)
Average25 °F73%30.09 "Hg
* Reported Nov 11 4:52 PM — Nov 26 4:52 PM, Davenport, Weather by CustomWeather, © 2014

Note: Actual official high and low records may vary slightly from our data, if they occured in-between our weather recording intervals... More about our weather records

Advertising

Davenport weather history for previous 24 hours

 ConditionsComfort  
Time TempWeatherWind HumidityBarometerVisibility
4:52 PM
Nov 26
27 °FOvercast.12 mph81%30.15 "Hg8 mi
3:52 PM28 °FOvercast.13 mph78%30.13 "Hg6 mi
2:52 PM28 °FOvercast.15 mph81%30.11 "Hg6 mi
1:52 PM28 °FPartly sunny.15 mph78%30.09 "Hg6 mi
12:52 PM27 °FPassing clouds.13 mph81%30.09 "Hg7 mi
11:52 AM26 °FPassing clouds.10 mph81%30.09 "Hg7 mi
10:52 AM25 °FOvercast.15 mph81%30.09 "Hg6 mi
9:52 AM23 °FIce fog.15 mph85%30.11 "Hg6 mi
8:52 AM22 °FIce fog.14 mph85%30.09 "Hg5 mi
7:52 AM21 °FIce fog.10 mph85%30.10 "Hg5 mi
6:52 AM20 °FClear.8 mph85%30.11 "Hg7 mi
5:52 AM19 °FIce fog.10 mph85%30.10 "Hg6 mi
4:52 AM18 °FIce fog.8 mph88%30.11 "Hg6 mi
3:52 AM17 °FClear.8 mph88%30.11 "Hg7 mi
2:52 AM17 °FClear.8 mph83%30.13 "Hg7 mi
1:52 AM16 °FClear.8 mph87%30.14 "Hg7 mi
12:52 AM16 °FClear.6 mph84%30.15 "Hg7 mi
11:52 PM
Nov 25
16 °FClear.9 mph84%30.17 "Hg9 mi
10:52 PM16 °FClear.8 mph87%30.18 "Hg10 mi
9:52 PM16 °FClear.3 mph77%30.20 "Hg10 mi
8:52 PM17 °FClear.7 mph83%30.19 "Hg10 mi
7:52 PM16 °FClear.6 mph84%30.19 "Hg10 mi
6:52 PM14 °FClear.6 mph84%30.18 "Hg10 mi
Weather by CustomWeather, © 2014

See weather overviewHow to use our weather pages